• Join FlightAware (Why Join?)
  • Login
  • US Flag GB Flag 
06:33 EST


 

Airport Tracker/Info


-or-


 

Live Flight TrackerFlight Track Log ✈ EJA982 ✈ 25-Apr-2013 ✈ KSAV - KMSP

Flight Track Log - Related Links

Times and Time Zones

All times are in EDT time to prevent confusion due to time zone crossing. See the EJA982 flight status page for this flight to view local times or setup timezone preferences in your user account.

Time Position Orientation Groundspeed Altitude Reporting Facility
EDT Latitude Longitude Course Direction KTS MPH feet Rate Location/Type
12:07 32.1825 -81.2086 333° Northwest 217 250 3,100  Level Jacksonville Center
12:08 32.2536 -81.2294 346° North 285 328 6,700 3,300 Climbing Jacksonville Center
12:09 32.2569 -81.3178 273° West 250 288 9,800 1,620 Climbing Jacksonville Center
12:10 32.2478 -81.4286 264° West 304 350 10,000 660 Climbing Jacksonville Center
12:11 32.2367 -81.5442 264° West 365 420 11,200 1,800 Climbing Jacksonville Center
12:12 32.7699 -81.5833 333° Northwest  Level FlightAware Approximate
12:12 32.2647 -81.6372 290° West 336 387 13,700  Level Jacksonville Center
12:13 32.3675 -81.6875 338° Northwest 330 380 16,100 2,040 Climbing Jacksonville Center
12:14 32.4639 -81.7181 345° North 373 429 17,900 2,220 Climbing Jacksonville Center
12:15 32.5789 -81.7586 343° North 390 449 20,600 2,040 Climbing Jacksonville Center
12:16 32.6836 -81.7967 343° North 388 447 22,000 660 Climbing Jacksonville Center
12:18 32.9636 -81.8947 344° North 420 483 23,000 600 Climbing Atlanta Center
12:19 33.0853 -81.9389 343° North 440 506 24,100 1,500 Climbing Atlanta Center
12:20 33.2008 -81.9808 343° North 441 507 26,100 2,040 Climbing Atlanta Center
12:21 33.3122 -82.0203 344° North 430 495 28,200 1,800 Climbing Atlanta Center
12:22 33.4194 -82.0700 339° North 425 489 29,800 1,380 Climbing Atlanta Center
12:23 33.5208 -82.1400 330° Northwest 414 476 31,000 1,080 Climbing Atlanta Center
12:24 33.6136 -82.2056 330° Northwest 414 476 32,000 1,380 Climbing Atlanta Center
12:25 33.7275 -82.2878 329° Northwest 439 505 33,800 2,160 Climbing Atlanta Center
12:26 33.8350 -82.3633 330° Northwest 446 513 36,400 2,160 Climbing Atlanta Center
12:27 33.9361 -82.4314 331° Northwest 425 489 38,200 1,680 Climbing Atlanta Center
12:28 34.0350 -82.5022 329° Northwest 417 480 39,800 900 Climbing Atlanta Center
12:29 34.1319 -82.5756 328° Northwest 415 478 40,000 60 Climbing Atlanta Center
12:30 34.2414 -82.6517 330° Northwest 435 501 40,000  Level Atlanta Center
12:31 34.3486 -82.7256 330° Northwest 448 516 40,000  Level Atlanta Center
12:32 34.4539 -82.8044 328° Northwest 448 516 40,000  Level Atlanta Center
12:33 34.5589 -82.8786 330° Northwest 448 516 40,000  Level Atlanta Center
12:34 34.6681 -82.9578 329° Northwest 448 516 40,000  Level Atlanta Center
12:35 34.7647 -83.0275 329° Northwest 446 513 40,000  Level Atlanta Center
12:36 34.8739 -83.1069 329° Northwest 452 520 40,000  Level Atlanta Center
12:37 34.9914 -83.1969 328° Northwest 452 520 40,000  Level Atlanta Center
12:38 35.1047 -83.2772 330° Northwest 452 520 40,000  Level Atlanta Center
12:39 35.2031 -83.3500 329° Northwest 458 527 40,000  Level Atlanta Center
12:40 35.3100 -83.4281 329° Northwest 453 521 40,000  Level Atlanta Center
12:41 35.4189 -83.5086 329° Northwest 453 521 40,000  Level Atlanta Center
12:42 35.5233 -83.5844 329° Northwest 447 514 40,000  Level Atlanta Center
12:43 35.6300 -83.6658 328° Northwest 447 514 40,000  Level Atlanta Center
12:44 35.7347 -83.7419 329° Northwest 447 514 40,000  Level Atlanta Center
12:45 35.8411 -83.8236 328° Northwest 447 514 40,000  Level Atlanta Center
12:46 35.9497 -83.9053 329° Northwest 452 520 40,000  Level Atlanta Center
12:47 36.0561 -83.9822 330° Northwest 452 520 40,000  Level Atlanta Center
12:48 36.1625 -84.0644 328° Northwest 452 520 40,000  Level Atlanta Center
12:51 36.4142 -84.2544 329° Northwest 445 512 40,000  Level Indianapolis Center
12:52 36.5278 -84.3406 329° Northwest 440 506 40,000  Level Indianapolis Center
12:53 36.6319 -84.4217 328° Northwest 440 506 40,000  Level Indianapolis Center
12:54 36.7372 -84.5017 329° Northwest 441 507 40,000  Level Indianapolis Center
12:55 36.8514 -84.5903 328° Northwest 443 510 40,000  Level Indianapolis Center
12:56 36.9544 -84.6711 328° Northwest 439 505 40,000  Level Indianapolis Center
12:57 37.0506 -84.7444 329° Northwest 440 506 40,000  Level Indianapolis Center
12:58 37.1717 -84.8392 328° Northwest 439 505 40,000  Level Indianapolis Center
12:59 37.2753 -84.9214 328° Northwest 438 504 40,000  Level Indianapolis Center
13:00 37.3797 -85.0014 329° Northwest 439 505 40,000  Level Indianapolis Center
13:01 37.4853 -85.0844 328° Northwest 443 510 40,000  Level Indianapolis Center
13:02 37.5914 -85.1686 328° Northwest 451 519 40,000  Level Indianapolis Center
13:03 37.6956 -85.2539 327° Northwest 446 513 40,000  Level Indianapolis Center
13:04 37.8211 -85.3517 328° Northwest 451 519 40,000  Level Indianapolis Center
13:05 37.9328 -85.4414 328° Northwest 457 526 40,000  Level Indianapolis Center
13:06 38.0392 -85.5250 328° Northwest 450 518 40,000  Level Indianapolis Center
13:07 38.1481 -85.6044 330° Northwest 452 520 40,000  Level Indianapolis Center
13:08 38.2653 -85.6711 336° Northwest 458 527 40,000  Level Indianapolis Center
13:09 38.3819 -85.7414 335° Northwest 461 531 40,000  Level Indianapolis Center
13:10 38.4992 -85.8108 335° Northwest 463 533 40,000  Level Indianapolis Center
13:11 38.6253 -85.8856 335° Northwest 462 532 40,000  Level Indianapolis Center
13:12 38.7556 -85.9633 335° Northwest 463 533 40,000  Level Indianapolis Center
13:13 38.8728 -86.0331 335° Northwest 465 535 40,000  Level Indianapolis Center
13:14 38.9978 -86.1089 335° Northwest 463 533 40,000  Level Indianapolis Center
13:15 39.1183 -86.1797 335° Northwest 471 542 40,000  Level Indianapolis Center
13:16 39.2372 -86.2528 335° Northwest 469 540 40,000  Level Indianapolis Center
13:17 39.3567 -86.3253 335° Northwest 470 541 40,000  Level Indianapolis Center
13:18 39.4769 -86.3983 335° Northwest 471 542 40,000  Level Indianapolis Center
13:19 39.5981 -86.4722 335° Northwest 471 542 40,000  Level Indianapolis Center
13:20 39.7197 -86.5467 335° Northwest 472 543 40,000  Level Indianapolis Center
13:22 39.8294 -86.6361 328° Northwest 462 532 40,000  Level Indianapolis Center
13:23 39.9136 -86.7583 312° West 447 514 40,000  Level Indianapolis Center
13:24 40.0108 -86.9008 312° West 449 517 40,000  Level Indianapolis Center
13:25 40.0936 -87.0228 312° West 446 513 40,000  Level Indianapolis Center
13:25 40.1292 -87.0547 326° Northwest 448 516 40,000  Level Chicago Center
13:26 40.2558 -87.1075 342° North 469 540 40,000  Level Chicago Center
13:27 40.3844 -87.1581 343° North 476 548 40,000  Level Chicago Center
13:28 40.5028 -87.2044 343° North 475 547 40,000  Level Chicago Center
13:29 40.6294 -87.2544 343° North 476 548 40,000  Level Chicago Center
13:30 40.7803 -87.3136 343° North 476 548 40,000  Level Chicago Center
13:31 40.9047 -87.3639 343° North 472 543 40,000  Level Chicago Center
13:32 41.0300 -87.4142 343° North 474 545 40,000  Level Chicago Center
13:33 41.1542 -87.4650 343° North 472 543 40,000  Level Chicago Center
13:34 41.3031 -87.5247 343° North 471 542 40,000  Level Chicago Center
13:35 41.4261 -87.5764 343° North 470 541 40,000  Level Chicago Center
13:36 41.5494 -87.6272 343° North 471 542 40,000  Level Chicago Center
13:37 41.6739 -87.6781 343° North 474 545 40,000  Level Chicago Center
13:38 41.8244 -87.7403 343° North 477 549 40,000  Level Chicago Center
13:39 41.9492 -87.7914 343° North 475 547 40,000  Level Chicago Center
13:40 42.0753 -87.8433 343° North 477 549 40,000  Level Chicago Center
13:41 42.2014 -87.8972 342° North 478 550 40,000  Level Chicago Center
13:43 42.3383 -87.9572 342° North 479 551 40,000  Level Chicago Center
13:44 42.4414 -88.0636 323° Northwest 466 536 40,000  Level Chicago Center
13:45 42.5397 -88.1742 320° Northwest 460 529 40,000  Level Chicago Center
13:46 42.6547 -88.3039 320° Northwest 460 529 40,000  Level Chicago Center
13:47 42.7536 -88.4172 320° Northwest 461 531 40,000  Level Chicago Center
13:48 42.8519 -88.5292 320° Northwest 461 531 40,000  Level Chicago Center
13:49 42.9500 -88.6411 320° Northwest 458 527 40,000  Level Chicago Center
13:50 43.0481 -88.7539 320° Northwest 458 527 40,000  Level Chicago Center
13:51 43.1469 -88.8675 320° Northwest 461 531 40,000  Level Chicago Center
13:52 43.2469 -88.9817 320° Northwest 462 532 40,000  Level Chicago Center
13:53 43.3622 -89.1153 320° Northwest 463 533 40,000  Level Chicago Center
13:54 43.4600 -89.2303 320° Northwest 462 532 40,000  Level Chicago Center
13:55 43.5586 -89.3467 319° Northwest 463 533 40,000  Level Chicago Center
13:56 43.6575 -89.4631 320° Northwest 465 535 40,000  Level Chicago Center
13:56 43.6897 -89.5017 319° Northwest 464 534 40,000  Level Minneapolis Center
13:57 43.7892 -89.6181 320° Northwest 467 537 40,000 -840 Level Minneapolis Center
13:58 43.8878 -89.7361 319° Northwest 467 537 38,300 -1,980 Descending Minneapolis Center
13:59 43.9778 -89.8442 319° Northwest 433 498 36,000 -1,920 Descending Minneapolis Center
14:00 44.0844 -89.9769 318° Northwest 438 504 34,400 -1,020 Descending Minneapolis Center
14:01 44.1500 -90.1161 303° West 430 495 34,000 -240 Descending Minneapolis Center
14:02 44.2017 -90.2650 296° West 425 489 34,000  Level Minneapolis Center
14:04 44.2558 -90.4211 296° West 444 511 34,000 -120 Level Minneapolis Center
14:05 44.3153 -90.6008 295° West 452 520 33,800 -300 Descending Minneapolis Center
14:06 44.3708 -90.7611 296° West 443 510 33,400 -1,260 Descending Minneapolis Center
14:07 44.4206 -90.9078 295° West 440 506 31,200 -2,220 Descending Minneapolis Center
14:08 44.4717 -91.0600 295° West 436 502 28,900 -2,280 Descending Minneapolis Center
14:09 44.5247 -91.2164 295° West 442 509 26,500 -2,400 Descending Minneapolis Center
14:10 44.5839 -91.3961 295° West 430 495 23,900 -2,340 Descending Minneapolis Center
14:11 44.6308 -91.5383 295° West 413 475 21,700 -2,100 Descending Minneapolis Center
14:12 44.6758 -91.6772 295° West 399 459 19,600 -1,980 Descending Minneapolis Center
14:13 44.7208 -91.8111 295° West 388 447 17,700 -2,160 Descending Minneapolis Center
14:13 44.7536 -91.8803 304° West 383 441 16,500 -2,400 Descending FAA TRACON SMA TRACON (SMA)
14:14 44.7667 -91.9214 294° West 376 433 15,900 -1,800 Descending FAA TRACON SMA TRACON (SMA)
14:14 44.7803 -91.9628 295° West 377 434 15,300 -2,100 Descending FAA TRACON SMA TRACON (SMA)
14:14 44.7931 -92.0147 289° West 372 428 14,500 -2,100 Descending FAA TRACON SMA TRACON (SMA)
14:15 44.8078 -92.0561 297° West 377 434 13,900 -2,100 Descending FAA TRACON SMA TRACON (SMA)
14:15 44.8228 -92.1075 292° West 373 429 13,100 -2,100 Descending FAA TRACON SMA TRACON (SMA)
14:15 44.8358 -92.1483 294° West 372 428 12,500 -1,380 Descending FAA TRACON SMA TRACON (SMA)
14:17 44.8514 -92.3950 275° West 354 407 10,000 -960 Descending Minneapolis Center
14:18 44.8058 -92.4933 237° Southwest 295 339 9,700 -1,020 Descending Minneapolis Center
14:19 44.8011 -92.5869 266° West 243 280 8,000 -1,800 Descending Minneapolis Center
14:20 44.8050 -92.6811 273° West 242 278 6,000 -1,920 Descending Minneapolis Center
14:21 44.8081 -92.7958 272° West 244 281 4,100 -1,020 Descending Minneapolis Center
14:22 44.8108 -92.8867 273° West 235 270 3,900 -360 Descending Minneapolis Center
14:23 44.8133 -92.9617 273° West 193 222 3,400 -540 Descending Minneapolis Center
14:24 44.8133 -93.0386 270° West 197 227 2,900 -480 Descending Minneapolis Center
14:25 44.8308 -93.1019 291° West 181 208 2,500 -720 Descending Minneapolis Center
14:26 44.8575 -93.1642 301° West 151 174 1,500 -960 Descending Minneapolis Center
14:29 44.8667 -93.2167 270° West  Level FlightAware Approximate
14:36 44.8820 -93.2218 270° West  Level Estimated